Date String (YYYY-MM-DD hh:mm:ss) UTC,Instrument flags,absolute air pressure of the measurement (hPa),sample flow rate (lpm),inlet stack bypass flow (lpm),air temperature of the measurement (°C),ambient temperature measured by the external sensor (°C),aerosol sample conditioner tube jacket temperature (°C),OPC LED temperature (°C),internal box temperature (°C),relative humidity of the measurement (%),span deviation,mass concentration of particles derived from Lorenz-Mie calculation of OPC scattering (μg/m³),mass concentration of particles derived from Lorenz-Mie calculation of OPC scattering (μg/m³),mass concentration of particles derived from Lorenz-Mie calculation of OPC scattering (μg/m³)
DateTimeUTC,F1_M11,P_M11,Q1_M11,Q2_M11,T1_M11,T2_M11,T3_M11,T4_M11,T5_M11,U1_M11,ZSPAN_M11,X0_M11,X2_M11,X1_M11
2023-12-05 16:00:00,SystemResetWarning,0835.2,5.00,000.00,021.1,020.4,000.0,029.3,022.4,15.7,0000.0,0002.06,0000.33,0000.24
2023-12-05 16:01:00,SystemResetWarning,0834.9,5.00,000.00,021.1,020.4,000.0,029.3,022.4,15.7,0000.0,0002.04,0000.33,0000.24
2023-12-05 16:02:00,SystemResetWarning,0835.0,5.01,000.00,021.1,020.4,000.0,029.3,022.4,15.8,0000.0,0001.99,0000.32,0000.24
2023-12-05 16:03:00,SystemResetWarning,0834.9,5.00,000.00,021.1,020.4,000.0,029.3,022.4,15.5,0000.0,0001.47,0000.33,0000.24
2023-12-05 16:04:00,SystemResetWarning,0835.0,5.00,000.00,021.1,020.4,000.0,029.3,022.5,15.3,0000.0,0001.18,0000.34,0000.24
2023-12-05 16:05:00,SystemResetWarning,0835.1,4.99,000.00,021.1,020.5,000.0,029.3,022.5,15.6,0000.0,0001.15,0000.33,0000.24
2023-12-05 16:06:00,SystemResetWarning,0835.0,4.99,000.00,021.1,020.5,000.0,029.4,022.5,15.4,0000.0,0001.14,0000.32,0000.24
2023-12-05 16:07:00,SystemResetWarning,0835.0,5.01,000.00,021.2,020.5,000.0,029.4,022.5,15.5,0000.0,0001.12,0000.31,0000.24
2023-12-05 16:08:00,SystemResetWarning,0835.0,5.01,000.00,021.2,020.5,000.0,029.4,022.5,15.5,0000.0,0001.21,0000.34,0000.24
2023-12-05 16:09:00,SystemResetWarning,0834.9,5.01,000.00,021.2,020.5,000.0,029.4,022.5,15.4,0000.0,0001.35,0000.35,0000.23
2023-12-05 16:10:00,SystemResetWarning,0835.0,4.99,000.00,021.2,020.6,000.0,029.4,022.6,15.2,0000.0,0001.11,0000.33,0000.23
2023-12-05 16:11:00,SystemResetWarning,0835.0,4.98,000.00,021.2,020.6,000.0,029.4,022.6,15.4,0000.0,0000.69,0000.32,0000.22
2023-12-05 16:12:00,SystemResetWarning,0835.0,5.01,000.00,021.3,020.6,000.0,029.4,022.6,15.4,0000.0,0000.67,0000.31,0000.22
2023-12-05 16:13:00,SystemResetWarning,0835.0,5.01,000.00,021.3,020.6,000.0,029.4,022.6,15.7,0000.0,0000.64,0000.30,0000.22
2023-12-05 16:14:00,SystemResetWarning,0835.0,5.00,000.00,021.3,020.6,000.0,029.5,022.6,15.4,0000.0,0000.61,0000.29,0000.22
2023-12-05 16:15:00,SystemResetWarning,0835.0,4.99,000.00,021.3,020.6,000.0,029.5,022.6,15.2,0000.0,0000.59,0000.28,0000.21
2023-12-05 16:16:00,SystemResetWarning,0835.0,4.99,000.00,021.3,020.7,000.0,029.5,022.7,15.3,0000.0,0000.60,0000.29,0000.22
2023-12-05 16:17:00,SystemResetWarning,0835.0,5.01,000.00,021.3,020.7,000.0,029.5,022.7,15.0,0000.0,0000.61,0000.29,0000.22
2023-12-05 16:18:00,SystemResetWarning,0835.0,5.01,000.00,021.3,020.7,000.0,029.5,022.7,15.0,0000.0,0000.61,0000.29,0000.22
2023-12-05 16:19:00,SystemResetWarning,0835.1,5.01,000.00,021.3,020.7,000.0,029.5,022.7,15.3,0000.0,0000.56,0000.27,0000.22
2023-12-05 16:20:00,SystemResetWarning,0835.1,4.99,000.00,021.4,020.7,000.0,029.5,022.7,15.1,0000.0,0000.44,0000.26,0000.21
2023-12-05 16:21:00,SystemResetWarning,0835.1,4.99,000.00,021.4,020.8,000.0,029.5,022.8,15.1,0000.0,0000.40,0000.26,0000.22
2023-12-05 16:22:00,SystemResetWarning,0835.1,5.00,000.00,021.4,020.8,000.0,029.6,022.8,15.0,0000.0,0000.39,0000.26,0000.22
2023-12-05 16:23:00,SystemResetWarning,0835.2,5.01,000.00,021.4,020.8,000.0,029.6,022.8,15.2,0000.0,0000.39,0000.26,0000.21
2023-12-05 16:24:00,SystemResetWarning,0835.1,5.01,000.00,021.4,020.8,000.0,029.6,022.8,14.9,0000.0,0000.38,0000.25,0000.21
2023-12-05 16:25:00,SystemResetWarning,0835.1,5.00,000.00,021.5,020.8,000.0,029.6,022.8,15.1,0000.0,0000.38,0000.25,0000.21
2023-12-05 16:26:00,SystemResetWarning,0835.1,5.01,000.00,021.5,020.9,000.0,029.6,022.8,15.0,0000.0,0000.37,0000.24,0000.21
2023-12-05 16:27:00,SystemResetWarning,0835.1,4.99,000.00,021.5,020.9,000.0,029.6,022.9,15.3,0000.0,0000.49,0000.25,0000.20
2023-12-05 16:28:00,SystemResetWarning,0835.1,5.00,000.00,021.5,020.9,000.0,029.7,022.9,15.3,0000.0,0000.49,0000.24,0000.20
2023-12-05 16:29:00,SystemResetWarning,0835.1,4.99,000.00,021.5,020.9,000.0,029.7,022.9,15.0,0000.0,0000.50,0000.25,0000.20
2023-12-05 16:30:00,SystemResetWarning,0835.1,4.99,000.00,021.5,020.9,000.0,029.7,022.9,15.0,0000.0,0000.47,0000.24,0000.20
2023-12-05 16:31:00,SystemResetWarning,0835.0,5.00,000.00,021.6,021.0,000.0,029.7,022.9,14.7,0000.0,0000.45,0000.23,0000.20
2023-12-05 16:32:00,SystemResetWarning,0835.0,5.00,000.00,021.6,021.0,000.0,029.7,022.9,14.6,0000.0,0000.43,0000.22,0000.20
2023-12-05 16:33:00,SystemResetWarning,0835.1,5.00,000.00,021.6,021.0,000.0,029.7,023.0,14.5,0000.0,0000.53,0000.23,0000.20
2023-12-05 16:34:00,SystemResetWarning,0835.0,5.00,000.00,021.6,021.0,000.0,029.7,023.0,14.7,0000.0,0000.64,0000.25,0000.20
2023-12-05 16:35:00,SystemResetWarning,0835.1,5.00,000.00,021.6,021.0,000.0,029.8,023.0,14.7,0000.0,0000.79,0000.26,0000.21
2023-12-05 16:36:00,SystemResetWarning,0835.1,5.00,000.00,021.6,021.0,000.0,029.8,023.0,14.5,0000.0,0000.89,0000.27,0000.20
2023-12-05 16:37:00,SystemResetWarning,0835.2,5.00,000.00,021.6,021.1,000.0,029.8,023.0,14.5,0000.0,0000.88,0000.29,0000.20
2023-12-05 16:38:00,SystemResetWarning,0835.1,5.00,000.00,021.7,021.1,000.0,029.8,023.1,14.4,0000.0,0000.80,0000.29,0000.20
2023-12-05 16:39:00,SystemResetWarning,0835.1,5.00,000.00,021.7,021.1,000.0,029.8,023.1,14.3,0000.0,0000.89,0000.30,0000.20
2023-12-05 16:40:00,SystemResetWarning,0835.1,4.99,000.00,021.7,021.1,000.0,029.8,023.1,14.5,0000.0,0001.34,0000.32,0000.20
2023-12-05 16:41:00,SystemResetWarning,0835.1,5.00,000.00,021.7,021.1,000.0,029.9,023.2,14.8,0000.0,0001.58,0000.33,0000.21
2023-12-05 16:42:00,SystemResetWarning,0835.2,5.00,000.00,021.7,021.2,000.0,029.9,023.1,14.6,0000.0,0002.28,0000.33,0000.21
2023-12-05 16:43:00,SystemResetWarning,0835.1,5.00,000.00,021.8,021.2,000.0,029.9,023.2,14.4,0000.0,0002.97,0000.33,0000.21
2023-12-05 16:44:00,SystemResetWarning,0835.0,5.00,000.00,021.8,021.2,000.0,029.9,023.1,14.3,0000.0,0003.09,0000.33,0000.21
2023-12-05 16:45:00,SystemResetWarning,0835.0,4.99,000.00,021.8,021.2,000.0,029.9,023.1,14.5,0000.0,0004.42,0000.32,0000.21
2023-12-05 16:46:00,SystemResetWarning,0835.0,5.00,000.00,021.8,021.2,000.0,029.9,023.2,14.5,0000.0,0004.70,0000.34,0000.20
2023-12-05 16:47:00,SystemResetWarning,0834.9,5.00,000.00,021.8,021.2,000.0,030.0,023.2,14.7,0000.0,0004.64,0000.34,0000.21
2023-12-05 16:48:00,SystemResetWarning,0834.9,5.00,000.00,021.8,021.2,000.0,030.0,023.2,14.4,0000.0,0004.61,0000.32,0000.22
2023-12-05 16:49:00,SystemResetWarning,0835.0,5.00,000.00,021.8,021.2,000.0,030.0,023.2,14.4,0000.0,0004.56,0000.30,0000.22
2023-12-05 16:50:00,SystemResetWarning,0835.0,5.01,000.00,021.8,021.2,000.0,030.0,023.2,14.4,0000.0,0004.47,0000.30,0000.22
2023-12-05 16:51:00,SystemResetWarning,0835.0,4.99,000.00,021.9,021.2,000.0,030.0,023.3,14.5,0000.0,0004.25,0000.29,0000.22
2023-12-05 16:52:00,SystemResetWarning,0835.0,5.01,000.00,021.9,021.2,000.0,030.0,023.3,14.5,0000.0,0004.19,0000.28,0000.22
2023-12-05 16:53:00,SystemResetWarning,0835.0,5.00,000.00,021.9,021.3,000.0,030.0,023.3,14.5,0000.0,0003.66,0000.29,0000.21
2023-12-05 16:54:00,SystemResetWarning,0835.0,5.00,000.00,021.9,021.3,000.0,030.1,023.3,14.7,0000.0,0002.86,0000.30,0000.21
2023-12-05 16:55:00,SystemResetWarning,0835.0,5.00,000.00,021.9,021.3,000.0,030.1,023.3,14.8,0000.0,0002.69,0000.30,0000.21
2023-12-05 16:56:00,SystemResetWarning,0835.0,5.00,000.00,021.9,021.3,000.0,030.1,023.3,15.0,0000.0,0001.52,0000.31,0000.21
2023-12-05 16:57:00,SystemResetWarning,0835.1,5.00,000.00,022.0,021.3,000.0,030.1,023.3,14.6,0000.0,0000.87,0000.29,0000.22
2023-12-05 16:58:00,SystemResetWarning,0835.1,5.00,000.00,022.0,021.4,000.0,030.1,023.4,14.8,0000.0,0000.84,0000.28,0000.21
2023-12-05 16:59:00,SystemResetWarning,0835.1,4.99,000.00,022.0,021.4,000.0,030.1,023.4,15.0,0000.0,0000.82,0000.27,0000.20
